Location: Warszawa
(52.2500°N, 21.0000°E)
Time: 20:32:05
(UTC+02:00)

MOZHAYETS 4 - Visible Passes

Search period start: 22 April 2024 00:00
Search period end: 02 May 2024 00:00
Orbit: 654 x 670 km, 98.3° (Epoch: 22 April)

Date Brightness Start Highest point End Pass type
(mag) Time Alt. Az. Time Alt. Az. Time Alt. Az.
22 Apr 8.7 03:06:34 10° SE 03:10:57 48° ENE 03:15:24 10° N visible
22 Apr 8.8 04:44:16 10° SSW 04:48:06 26° W 04:51:58 10° NW visible
23 Apr 10.5 02:02:11 10° E 02:04:52 16° NE 02:07:35 10° NNE visible
23 Apr 7.8 03:36:32 10° SSE 03:41:09 85° ENE 03:45:46 10° NNW visible
24 Apr 9.9 02:31:03 10° ESE 02:34:47 25° ENE 02:38:32 10° N visible
24 Apr 7.9 04:06:56 10° S 04:11:26 53° W 04:15:57 10° NNW visible
25 Apr 9.0 03:00:28 10° SE 03:04:48 42° ENE 03:09:08 10° N visible
26 Apr 10.6 01:56:23 10° E 01:58:44 14° NE 02:01:07 10° NNE visible
26 Apr 7.9 03:30:20 10° SSE 03:34:55 75° ENE 03:39:32 10° NNW visible
27 Apr 10.1 02:25:02 10° ESE 02:28:35 23° ENE 02:32:09 10° N visible
27 Apr 7.8 04:00:37 10° S 04:05:09 60° WSW 04:09:44 10° NNW visible
28 Apr 9.2 02:54:20 10° SE 02:58:33 37° ENE 03:02:47 10° N visible
28 Apr 8.5 04:31:21 10° SSW 04:35:30 33° W 04:39:41 10° NNW visible
29 Apr 10.7 01:50:35 10° ENE 01:52:32 13° NE 01:54:29 10° NNE visible
29 Apr 8.1 03:24:04 10° SSE 03:28:37 66° ENE 03:33:12 10° N visible
30 Apr 10.3 02:18:59 10° ESE 02:22:19 20° ENE 02:25:40 10° N visible
30 Apr 7.7 03:54:13 10° S 03:58:48 69° WSW 04:03:24 10° NNW visible
01 May 9.5 02:48:07 10° SE 02:52:13 33° ENE 02:56:20 10° N visible
01 May 8.3 04:24:49 10° SSW 04:29:06 38° W 04:33:23 10° NNW visible
